User: anonymous   Login
Location: Unspecified
(0.0000°N, 0.0000°E)
Time: 04:00:07
(UTC+00:00)
Language:

Max Valier Satellite - Orbit

View from above orbital plane
View from above orbital plane
View from above satellite
View from above satellite

Ground track
Ground track

The orbit data is extracted from the following two-line orbital elements,

1 42778U 17036P   21137.63250418  .00001318  00000-0  58012-4 0  9991
2 42778  97.2575 187.2506 0010064 287.4378  72.5759 15.23522204216598
Epoch (UTC): 17 May 2021 15:10:48
Eccentricity: 0.0010064
inclination: 97.2575°
perigee height: 488 km
apogee height: 502 km
right ascension of ascending node: 187.2506°
argument of perigee: 287.4378°
revolutions per day: 15.23522204
mean anomaly at epoch: 72.5759°
orbit number at epoch: 21659

The dashed part of the orbit path shows where the satellite is in the earth's shadow,  

DLR